Weather History for KCDC - July, 2013

Change the Weather History Date:

Friday, July 12, 2013

  Actual Average Record
Temperature  
Mean Temperature 73 °F 73 °F  
Max Temperature 83 °F 90 °F 100 °F (2003)
Min Temperature 62 °F 56 °F 47 °F (1951)
Degree Days  
Heating Degree Days 0 0  
Month to date heating degree days 0 0  
Since 1 June heating degree days 11 76  
Since 1 July heating degree days 0 0  
Cooling Degree Days 8 8  
Month to date cooling degree days 134 87  
Year to date cooling degree days 287 188  
Since 1 June cooling degree days 285 180  
Growing Degree Days 21 (Base 50)    
Moisture  
Dew Point 57 °F    
Average Humidity 65    
Maximum Humidity 93    
Minimum Humidity 36    
Precipitation  
Precipitation T in 0.02 in 0.63 in (1975)
Month to date precipitation 0.65 0.21  
Year to date precipitation 4.72 5.78  
Sea Level Pressure  
Sea Level Pressure 29.95 in    
Wind  
Wind Speed 7 mph (SSW)    
Max Wind Speed 15 mph    
Max Gust Speed 25 mph    
Visibility 10 miles    
Events Rain , Thunderstorm    
T = Trace of Precipitation, MM = Missing Value Source: NWS Daily Summary

Daily Weather History Graph

Daily Weather History Graph

Search for Another Location

Airport or City:

Trip Planner

Search our weather history database for the weather conditions in past years. The results will help you decide how hot, cold, wet, or windy it might be!

Date:

Astronomy

Jul. 12, 2013 Rise Set
Actual Time 6:20 AM MDT 8:54 PM MDT
Civil Twilight 5:50 AM MDT 9:25 PM MDT
Nautical Twilight 5:12 AM MDT 10:03 PM MDT
Astronomical Twilight 4:29 AM MDT 10:45 PM MDT
Moon 10:35 AM MDT (7/12) 11:13 PM MDT (7/12)
Length of Visible Light 15h 35m
Length of Day
14h 34m
Waxing Crescent, 18% of the Moon is Illuminated
Jul 12
Waxing Crescent
Jul 15
First Quarter
Jul 22
Full
Jul 29
Last Quarter
Aug 6
New

Hourly Weather History & Observations

Time (MDT) Temp. Heat Index Dew Point Humidity Pressure Visibility Wind Dir Wind Speed Gust Speed Precip Events Conditions
12:53 AM 62.1 °F - 57.9 °F 86% 29.92 in 10.0 mi WNW 5.8 mph - 0.00 in   Overcast
1:53 AM 63.0 °F - 57.9 °F 84% 29.91 in 10.0 mi Calm Calm - N/A   Overcast
2:53 AM 64.0 °F - 57.9 °F 80% 29.93 in 10.0 mi South 4.6 mph - N/A   Overcast
3:53 AM 64.0 °F - 60.1 °F 87% 29.93 in 10.0 mi WSW 9.2 mph - N/A   Overcast
4:53 AM 63.0 °F - 60.1 °F 90% 29.91 in 10.0 mi SSW 4.6 mph - N/A   Overcast
5:53 AM 62.1 °F - 57.9 °F 86% 29.91 in 10.0 mi WSW 4.6 mph - N/A   Overcast
6:53 AM 63.0 °F - 59.0 °F 87% 29.93 in 10.0 mi South 6.9 mph - N/A   Overcast
7:53 AM 66.0 °F - 59.0 °F 78% 29.94 in 10.0 mi SW 4.6 mph - N/A   Mostly Cloudy
8:53 AM 64.9 °F - 59.0 °F 81% 29.96 in 10.0 mi SSW 8.1 mph - N/A   Overcast
9:53 AM 66.0 °F - 59.0 °F 78% 29.97 in 10.0 mi SSW 8.1 mph - N/A   Overcast
10:53 AM 71.1 °F - 55.9 °F 59% 29.95 in 10.0 mi SW 9.2 mph - N/A   Overcast
11:53 AM 73.0 °F - 55.9 °F 55% 29.96 in 10.0 mi Variable 4.6 mph - 0.00 in   Mostly Cloudy
12:53 PM 75.9 °F - 55.0 °F 48% 29.95 in 10.0 mi SW 8.1 mph - 0.00 in   Scattered Clouds
1:53 PM 69.1 °F - 55.0 °F 61% 29.97 in 10.0 mi SW 6.9 mph - 0.00 in   Overcast
2:21 PM 71.6 °F - 57.2 °F 60% 30.16 in 10.0 mi SE 8.1 mph - N/A Thunderstorm Mostly Cloudy
2:36 PM 71.6 °F - 57.2 °F 60% 30.14 in 10.0 mi Variable 3.5 mph - N/A   Scattered Clouds
2:53 PM 75.0 °F - 55.9 °F 51% 29.92 in 10.0 mi Variable 3.5 mph - N/A   Partly Cloudy
3:53 PM 80.1 °F 80.1 °F 55.0 °F 42% 29.88 in 10.0 mi SSW 15.0 mph 25.3 mph N/A   Mostly Cloudy
4:53 PM 80.1 °F - 51.1 °F 36% 29.86 in 10.0 mi WSW 12.7 mph 19.6 mph N/A   Clear
5:53 PM 75.9 °F - 52.0 °F 43% 29.89 in 10.0 mi SW 12.7 mph 20.7 mph N/A Thunderstorm Clear
6:53 PM 64.0 °F - 60.1 °F 87% 29.94 in 9.0 mi WSW 5.8 mph - 0.04 in Rain Light Rain
7:53 PM 64.9 °F - 60.1 °F 84% 29.93 in 10.0 mi SSW 4.6 mph - 0.00 in   Scattered Clouds
8:53 PM 66.9 °F - 55.0 °F 66% 29.91 in 10.0 mi South 6.9 mph - N/A   Clear
9:53 PM 63.0 °F - 57.0 °F 81% 29.93 in 10.0 mi South 6.9 mph - N/A   Clear
10:53 PM 64.9 °F - 54.0 °F 68% 29.93 in 10.0 mi South 10.4 mph - N/A   Clear
11:53 PM 63.0 °F - 54.0 °F 72% 29.94 in 10.0 mi Calm Calm - N/A   Clear